Location: Killarney
(45.9719°N, 81.5115°W)
Time: 06:12:18
(UTC-05:00)

ISS - Visible Passes

Search period start: 23 November 2017 00:00
Search period end: 03 December 2017 00:00
Orbit: 402 x 407 km, 51.6° (Epoch: 23 November)

Date Brightness Start Highest point End Pass type
(mag) Time Alt. Az. Time Alt. Az. Time Alt. Az.
26 Nov -1.5 18:34:43 10° S 18:35:51 15° SSE 18:35:51 15° SSE visible
27 Nov -1.3 19:17:32 10° SW 19:18:37 19° SW 19:18:37 19° SW visible
28 Nov -3.0 18:25:30 10° SSW 18:28:31 35° SE 18:28:36 35° SE visible
29 Nov -2.1 17:33:47 10° S 17:36:20 21° SE 17:38:30 12° E visible
29 Nov -2.0 19:09:16 10° WSW 19:11:10 31° W 19:11:10 31° W visible
30 Nov -3.9 18:16:53 10° SW 18:20:09 75° SSE 18:21:00 46° ENE visible
01 Dec -3.1 17:24:42 10° SW 17:27:51 43° SE 17:30:46 11° ENE visible
01 Dec -2.2 19:01:11 10° W 19:03:25 33° WNW 19:03:25 33° WNW visible
02 Dec -3.5 18:08:36 10° WSW 18:11:51 59° NNW 18:13:09 32° NE visible
